Showing default

EAGLET 1, 43790

Orbit data source: Space-Track

EAGLET 1, 43790 is a payload satellite owned by OHB-I (IT) in SSO that was launched on Mon, 03 Dec 2018 UTC via an FALCON 9 launch vehicle from the Air Force Western Test Range (AFWTR). Payload-class satellites include a variety of spacecraft equipped with specific instruments for various scientific and technological missions. These include communications satellites like Starlink; space stations such as the ISS; scientific satellites like the Hubble; Earth observation satellites from companies like Planet Labs, Umbra, and HawkEye 360; GPS; miniature CubeSats for education and research; and military/defense satellites.

Loading next visibility...
Identifier
43790, 2018-099AJ
Orbit
SSO
Country
Flag of ITIT
Related business
Manufacturer
OHB-I
Mission
Operational Commercial Technology
Bus & Motor
CUBESAT 3U, Unknown motor
Mass
5 kg wet, 5 kg dry
Launch date (UTC)
2018-12-03 (7 years ago)
Launch vehicle
FALCON 9
Launch site
Air Force Western Test Range (AFWTR)
Object type
Payload
Rocket body
Debris
Shape & HBR
Box + 2 Pan, 0.1 m
Radar Cross Section
0.035 m², Small (<0.1 m²)

Expand to show TLE details & history
Last TLE update: 8 hours ago

TLE from 8 hours ago
0 EAGLET 1
1 43790U 18099AJ  25299.67928123  .00006039  00000-0  37026-3 0  9994
2 43790  97.4593 350.4312 0013246  74.5761 285.6931 15.10437115377050
Epoch: 2025-10-26T16:18Z
TLE epoch observation values (Epoch: 2025-10-26T16:18:09.898Z)
Latitude
-0.00001°
Longitude
70.59794°
Altitude
535.476 km
Speed
7.596 km/s
True Right ascension
23h 21m 43s
True Declination
0° 00' 00"
Sunlit
Object was in full shadow at epoch
Visualization orbit readout
Latitude
Unknown
Longitude
Unknown
Altitude
Unknown
Speed
Unknown
Apparent Right ascension
Unknown
Apparent Declination
Unknown
Sunlit
N/A
Visualization observer readout
Local Sidereal Time
20:04:59
Azimuth
Unknown
Elevation
Unknown
Doppler factor
Unknown
Orbital elements
Apogee altitude
541 km
Perigee altitude
522.694 km
Semi-major axis
6,909.984 km
Eccentricity
0.00132
Inclination
97.4593°
RAAN
350.4312°
Arg. of periapsis
74.5761°
True anomaly
285.5469°
Mean anomaly
285.6931°
Eccentric anomaly
285.62001°
Mean motion
3.77857 °/min
Orbital period
95.27 mins
BSTAR
0.00037026
Loading maneuver chart data...
Computing Atmospheric mass density...
Loading historical data...
Loading historical data...
Loading historical data...
Loading historical data...
Loading historical data...
Loading historical data...
Loading historical data...

Documentation

Showing up to 5 results
|